FW1747 Weather Reports


Display with metric or nautical units.
time (UTC)temp
F
wind
direction
speed
MPH
gust
MPH
rain 1hr
in
rain 24hr
in
rain mn
in
humidity
%
barometer
mb
20260506021553 63 324 0.0 0.0 0.00 0.00 0.00 66 1015.7
20260506020056 64 332 0.0 0.0 0.00 0.00 0.00 65 1015.7
20260506014553 64 25 0.0 0.0 0.00 0.00 0.00 66 1015.6
20260506013056 64 328 0.0 0.0 0.00 0.00 0.00 66 1015.6
20260506011552 63 93 0.0 0.0 0.00 0.00 0.00 67 1015.5
20260506010051 63 70 0.0 0.0 0.00 0.00 0.00 66 1015.4
20260506004557 64 96 0.0 0.0 0.00 0.00 0.00 66 1015.5
20260506003052 64 22 0.0 1.0 0.00 0.00 0.00 65 1015.5
20260506001555 63 1 0.0 0.0 0.00 0.00 0.00 67 1015.5
20260506000056 63 139 0.0 0.0 0.00 0.00 0.00 67 1015.6
20260505234550 64 81 0.0 0.0 0.00 0.00 0.00 65 1015.9
20260505233051 63 254 0.0 0.0 0.00 0.00 0.00 67 1016.1
20260505231546 63 309 0.0 0.0 0.00 0.00 0.00 67 1016.1
20260505230108 62 358 0.0 0.0 0.00 0.00 0.00 68 1016.2
20260505224541 62 3 0.0 0.0 0.00 0.00 0.00 68 1016.2
20260505223043 62 326 0.0 0.0 0.00 0.00 0.00 68 1016.4
20260505221544 62 343 0.0 0.0 0.00 0.00 0.00 70 1016.4
20260505220050 61 353 0.0 0.0 0.00 0.00 0.00 68 1016.5
20260505214538 62 313 0.0 0.0 0.00 0.00 0.00 67 1016.5
20260505213035 62 354 0.0 0.0 0.00 0.00 0.00 68 1016.6
20260505211533 61 359 0.0 0.0 0.00 0.00 0.00 69 1016.8
20260505210034 61 359 0.0 0.0 0.00 0.00 0.00 69 1016.8
20260505204529 61 246 0.0 0.0 0.00 0.00 0.00 69 1016.8
20260505203026 60 296 0.0 0.0 0.00 0.00 0.00 71 1016.9
20260505201522 60 1 0.0 0.0 0.00 0.00 0.00 71 1017.0
20260505200031 59 289 0.0 0.0 0.00 0.00 0.00 72 1017.0
20260505194515 58 4 0.0 0.0 0.00 0.00 0.00 72 1017.0
20260505193015 58 359 0.0 0.0 0.00 0.00 0.00 72 1017.1
20260505191522 58 334 0.0 0.0 0.00 0.00 0.00 72 1017.1
20260505190108 58 295 0.0 0.0 0.00 0.00 0.00 73 1017.1
20260505184507 58 359 0.0 0.0 0.00 0.00 0.00 73 1017.0
20260505183007 58 356 0.0 0.0 0.00 0.00 0.00 73 1017.1
20260505181505 58 359 0.0 0.0 0.00 0.00 0.00 71 1017.0
20260505180004 58 275 0.0 0.0 0.00 0.00 0.00 72 1017.0
20260505174503 58 309 0.0 0.0 0.00 0.00 0.00 73 1016.9
20260505173001 58 105 0.0 0.0 0.00 0.00 0.00 72 1016.8
20260505171600 58 346 0.0 0.0 0.00 0.00 0.00 75 1016.7
20260505170057 56 349 0.0 0.0 0.00 0.00 0.00 76 1016.7
20260505164555 55 199 0.0 0.0 0.00 0.00 0.00 76 1016.8
20260505163054 55 242 0.0 0.0 0.00 0.00 0.00 78 1016.6
20260505161549 55 224 0.0 0.0 0.00 0.00 0.00 80 1016.6
20260505153044 54 216 0.0 0.0 0.00 0.00 0.00 80 1016.6
20260505151543 54 130 0.0 0.0 0.00 0.00 0.00 82 1016.6
20260505124529 52 210 0.0 0.0 0.00 0.00 0.00 83 1015.5
20260505123027 52 209 0.0 0.0 0.00 0.00 0.00 84 1015.4
20260505121533 52 186 0.0 0.0 0.00 0.00 0.00 83 1015.5
20260505120026 52 214 0.0 0.0 0.00 0.00 0.00 83 1015.4
20260505114524 52 195 0.0 0.0 0.00 0.00 0.00 83 1015.4
20260505113022 52 205 0.0 0.0 0.00 0.00 0.00 83 1015.3
20260505111521 52 223 0.0 0.0 0.00 0.00 0.00 83 1015.2
20260505101520 52 200 0.0 0.0 0.00 0.00 0.00 84 1014.9
20260505100018 52 214 0.0 0.0 0.00 0.00 0.00 84 1015.0
20260505094512 52 169 0.0 0.0 0.00 0.00 0.00 84 1014.9
20260505093010 52 169 0.0 0.0 0.00 0.00 0.00 84 1014.7
20260505091509 52 169 0.0 0.0 0.00 0.00 0.00 85 1014.7
20260505090015 51 169 0.0 0.0 0.00 0.00 0.00 85 1014.6
20260505084507 51 169 0.0 0.0 0.00 0.00 0.00 84 1014.7
20260505083006 51 169 0.0 0.0 0.00 0.00 0.00 84 1014.5
20260505081506 51 217 0.0 0.0 0.00 0.00 0.00 84 1014.4
20260505080009 51 217 0.0 0.0 0.00 0.00 0.00 84 1014.4
20260505074502 51 173 0.0 0.0 0.00 0.00 0.00 84 1014.4
20260505073104 51 173 0.0 0.0 0.00 0.00 0.00 82 1014.3
20260505071556 51 173 0.0 0.0 0.00 0.00 0.00 82 1014.2
20260505070054 51 173 0.0 0.0 0.00 0.00 0.00 81 1014.1
20260505064554 52 173 0.0 0.0 0.00 0.00 0.00 80 1014.0
20260505063053 52 173 0.0 0.0 0.00 0.00 0.00 80 1013.8
20260505061553 53 171 0.0 0.0 0.00 0.00 0.00 79 1013.7
20260505060052 53 235 0.0 0.0 0.00 0.00 0.00 78 1013.8
20260505054556 53 235 0.0 0.0 0.00 0.00 0.00 78 1013.8
20260505053051 54 188 0.0 0.0 0.00 0.00 0.00 77 1013.8
20260505051550 54 176 0.0 0.0 0.00 0.00 0.00 76 1013.6
20260505041549 57 219 0.0 0.0 0.00 0.00 0.00 76 1012.9
20260505040052 58 191 0.0 0.0 0.00 0.00 0.00 75 1012.6
20260505034551 59 191 0.0 0.0 0.00 0.00 0.00 74 1012.4
20260505033047 60 191 0.0 0.0 0.00 0.00 0.00 72 1012.0
20260505031556 61 191 0.0 0.0 0.00 0.00 0.00 70 1011.9
20260505030047 62 194 0.0 0.0 0.00 0.00 0.00 70 1011.6
20260505024551 64 225 0.0 1.0 0.00 0.00 0.00 68 1011.3
20260505023047 65 203 0.0 0.0 0.00 0.00 0.00 65 1011.2